TIANMU-1 07

Last updated on Tue Jan 14 2025 00:02:18 GMT+0000 (Coordinated Universal Time)

1 57399U 23101A 25013.57064606 .00007934 00000+0 34932-3 0 9991 2 57399 97.3353 71.1546 0004931 155.6776 204.4694 15.22091562 82375
UTC large
Height (km)
Speed (km/s)
/
Latitude / Longitude
Inclination (degrees)
Orbital Period (minutes)
Azimuth
Elevation
Range (km)
Doppler Factor

Next 0 passes for location: London (51.5072 / 0.1276)

Sorry there are no passes over London.